Moorhead, MN

10:16 AM CDT on August 18, 2017 (GMT -0500)
Moorhead Municipal

Weather History for KJKJ - January, 2014

Change the Weather History Date:

Friday, January 3, 2014

  Actual Average (KFAR) Record (KFAR)
Temperature  
Mean Temperature 11 °F -  
Max Temperature 26 °F 14 °F 40 °F (1927)
Min Temperature -4 °F -3 °F -35 °F (1919)
Degree Days  
Heating Degree Days 54    
Moisture  
Dew Point 11 °F    
Average Humidity 93    
Maximum Humidity 100    
Minimum Humidity 78    
Precipitation  
Precipitation 0.00 in - - ()
Sea Level Pressure  
Sea Level Pressure 29.55 in    
Wind  
Wind Speed 21 mph (South)    
Max Wind Speed 31 mph    
Max Gust Speed 41 mph    
Visibility 4 miles    
Events Snow    
Averages and records for this station are not official NWS values.
T = Trace of Precipitation, MM = Missing Value Source: NWS Daily Summary

Daily Weather History Graph

Daily Weather History Graph

Search for Another Location

Airport or City:

Trip Planner

Search our weather history database for the weather conditions in past years. The results will help you decide how hot, cold, wet, or windy it might be!

Date:

Astronomy

Jan. 03, 2014 Rise Set
Actual Time 8:11 AM CST 4:50 PM CST
Civil Twilight 7:36 AM CST 5:25 PM CST
Nautical Twilight 6:58 AM CST 6:04 PM CST
Astronomical Twilight 6:21 AM CST 6:41 PM CST
Moon 9:27 AM CST (1/3) 8:14 PM CST (1/3)
Length of Visible Light 9h 49m
Length of Day
8h 39m
Waxing Crescent, 8% of the Moon is Illuminated
Jan 3
Waxing Crescent
Jan 7
First Quarter
Jan 15
Full
Jan 23
Last Quarter
Jan 30
New

Hourly Weather History & Observations

Time (CST) Temp. Windchill Dew Point Humidity Pressure Visibility Wind Dir Wind Speed Gust Speed Precip Events Conditions
12:15 AM -4.0 °F -27.0 °F -7.6 °F 85% 30.11 in 5.0 mi South 19.6 mph 24.2 mph N/A   Mostly Cloudy
12:35 AM -2.2 °F -24.7 °F -5.8 °F 85% 30.09 in 5.0 mi South 19.6 mph 25.3 mph N/A   Scattered Clouds
12:54 AM -2.2 °F -23.5 °F -5.8 °F 85% 30.07 in 7.0 mi South 17.3 mph 25.3 mph N/A   Scattered Clouds
1:15 AM -2.2 °F -24.1 °F -5.8 °F 85% 30.05 in 7.0 mi South 18.4 mph 24.2 mph N/A   Mostly Cloudy
1:35 AM -0.4 °F -22.8 °F -5.8 °F 78% 30.02 in 5.0 mi South 20.7 mph 25.3 mph N/A   Mostly Cloudy
1:54 AM -0.4 °F -22.3 °F -4.0 °F 85% 30.00 in 5.0 mi South 19.6 mph 27.6 mph N/A   Mostly Cloudy
2:15 AM -0.4 °F -23.3 °F -4.0 °F 85% 29.97 in 4.0 mi South 21.9 mph 28.8 mph N/A   Mostly Cloudy
2:35 AM 1.4 °F -20.5 °F -2.2 °F 85% 29.96 in 3.0 mi South 20.7 mph 26.5 mph N/A   Mostly Cloudy
2:54 AM 1.4 °F -19.9 °F -2.2 °F 85% 29.96 in 4.0 mi South 19.6 mph 27.6 mph N/A   Overcast
3:15 AM 1.4 °F -22.7 °F -2.2 °F 85% 29.92 in 4.0 mi South 26.5 mph 29.9 mph N/A   Overcast
3:34 AM 1.4 °F -21.9 °F -2.2 °F 85% 29.90 in 3.0 mi South 24.2 mph 31.1 mph N/A   Overcast
3:55 AM 3.2 °F -19.9 °F -0.4 °F 85% 29.87 in 2.0 mi South 25.3 mph 32.2 mph N/A   Overcast
4:15 AM 3.2 °F -19.0 °F -0.4 °F 85% 29.85 in 2.5 mi South 23.0 mph 31.1 mph N/A   Overcast
4:34 AM 3.2 °F -19.5 °F -0.4 °F 85% 29.83 in 2.5 mi South 24.2 mph 28.8 mph N/A   Overcast
4:55 AM 3.2 °F -19.0 °F 1.4 °F 92% 29.81 in 2.5 mi South 23.0 mph 31.1 mph N/A   Overcast
5:15 AM 3.2 °F -20.3 °F 1.4 °F 92% 29.79 in 2.5 mi South 26.5 mph 32.2 mph N/A   Overcast
5:34 AM 3.2 °F -20.3 °F 1.4 °F 92% 29.76 in 1.8 mi South 26.5 mph 35.7 mph N/A   Overcast
5:55 AM 5.0 °F -16.7 °F 3.2 °F 92% 29.75 in 1.8 mi South 23.0 mph 32.2 mph N/A Snow Light Snow
6:15 AM 5.0 °F -15.7 °F 3.2 °F 92% 29.73 in 1.5 mi South 20.7 mph 32.2 mph N/A Snow Light Snow
6:34 AM 6.8 °F -15.1 °F 3.2 °F 85% 29.70 in 1.2 mi South 25.3 mph 34.5 mph N/A Snow Light Snow
6:55 AM 6.8 °F -15.5 °F 5.0 °F 92% 29.69 in 1.5 mi South 26.5 mph 33.4 mph N/A Snow Light Snow
7:15 AM 6.8 °F -15.9 °F 6.8 °F 100% 29.66 in 1.8 mi South 27.6 mph 35.7 mph N/A Snow Light Snow
7:34 AM 8.6 °F -12.7 °F 6.8 °F 92% 29.63 in 1.8 mi South 25.3 mph 36.8 mph N/A Snow Light Snow
7:55 AM 8.6 °F -13.4 °F 8.6 °F 100% 29.62 in 2.0 mi South 27.6 mph 35.7 mph N/A   Overcast
8:14 AM 10.4 °F -10.7 °F 8.6 °F 92% 29.61 in 2.0 mi South 26.5 mph 31.1 mph N/A   Overcast
8:35 AM 10.4 °F -8.2 °F 8.6 °F 92% 29.61 in 1.8 mi South 19.6 mph 31.1 mph N/A   Overcast
8:55 AM 10.4 °F -9.5 °F 8.6 °F 92% 29.58 in 1.5 mi South 23.0 mph 33.4 mph N/A   Overcast
9:14 AM 10.4 °F -10.7 °F 10.4 °F 100% 29.56 in 1.5 mi South 26.5 mph 33.4 mph N/A   Overcast
9:35 AM 12.2 °F -7.5 °F 10.4 °F 92% 29.55 in 1.5 mi South 24.2 mph 34.5 mph N/A   Overcast
9:55 AM 12.2 °F -7.5 °F 10.4 °F 92% 29.55 in 2.5 mi South 24.2 mph 32.2 mph N/A   Overcast
10:14 AM 12.2 °F -8.2 °F 12.2 °F 100% 29.53 in 2.5 mi South 26.5 mph 33.4 mph N/A   Overcast
10:35 AM 14.0 °F -4.3 °F 12.2 °F 93% 29.53 in 3.0 mi South 21.9 mph 33.4 mph N/A   Overcast
10:55 AM 14.0 °F -4.7 °F 12.2 °F 93% 29.51 in 2.5 mi South 23.0 mph 28.8 mph N/A   Overcast
11:14 AM 15.8 °F -3.1 °F 14.0 °F 93% 29.49 in 2.0 mi South 25.3 mph 31.1 mph N/A   Overcast
11:35 AM 15.8 °F -3.1 °F 15.8 °F 100% 29.47 in 1.2 mi South 25.3 mph 31.1 mph N/A   Overcast
11:55 AM 15.8 °F -1.5 °F 15.8 °F 100% 29.46 in 2.5 mi South 20.7 mph 27.6 mph N/A   Overcast
12:14 PM 17.6 °F 0.5 °F 15.8 °F 93% 29.44 in 3.0 mi South 21.9 mph 31.1 mph N/A   Mostly Cloudy
12:35 PM 17.6 °F 0.1 °F 15.8 °F 93% 29.41 in 1.5 mi South 23.0 mph 32.2 mph N/A   Mostly Cloudy
12:55 PM 17.6 °F 0.9 °F 15.8 °F 93% 29.41 in 4.0 mi South 20.7 mph 28.8 mph N/A   Scattered Clouds
1:14 PM 17.6 °F 0.1 °F 15.8 °F 93% 29.39 in 3.0 mi South 23.0 mph 27.6 mph N/A   Mostly Cloudy
1:35 PM 17.6 °F 0.5 °F 17.6 °F 100% 29.37 in 4.0 mi South 21.9 mph - N/A   Mostly Cloudy
1:54 PM 17.6 °F 2.2 °F 17.6 °F 100% 29.37 in 2.5 mi South 17.3 mph 28.8 mph N/A   Scattered Clouds
2:15 PM 19.4 °F 4.1 °F 17.6 °F 93% 29.36 in 7.0 mi South 18.4 mph - N/A   Scattered Clouds
2:34 PM 19.4 °F 4.1 °F 17.6 °F 93% 29.35 in 7.0 mi South 18.4 mph 26.5 mph N/A   Clear
2:55 PM 19.4 °F 4.1 °F 17.6 °F 93% 29.34 in 7.0 mi South 18.4 mph 24.2 mph N/A   Clear
3:15 PM 19.4 °F 3.6 °F 17.6 °F 93% 29.34 in 7.0 mi South 19.6 mph 26.5 mph N/A   Clear
3:34 PM 19.4 °F 5.0 °F 17.6 °F 93% 29.35 in 7.0 mi South 16.1 mph 25.3 mph N/A   Clear
3:55 PM 19.4 °F 4.1 °F 17.6 °F 93% 29.33 in 7.0 mi South 18.4 mph 21.9 mph N/A   Clear
4:15 PM 19.4 °F 4.5 °F 17.6 °F 93% 29.33 in 7.0 mi South 17.3 mph 24.2 mph N/A   Clear
4:34 PM 19.4 °F 4.1 °F 19.4 °F 100% 29.32 in 7.0 mi South 18.4 mph 25.3 mph N/A   Scattered Clouds
4:55 PM 21.2 °F 6.0 °F 19.4 °F 93% 29.32 in 7.0 mi South 19.6 mph 24.2 mph N/A   Overcast
5:15 PM 21.2 °F 7.8 °F 19.4 °F 93% 29.32 in 7.0 mi South 15.0 mph 23.0 mph N/A   Overcast
5:34 PM 21.2 °F 7.8 °F 19.4 °F 93% 29.32 in 7.0 mi South 15.0 mph 19.6 mph N/A   Overcast
5:55 PM 21.2 °F 6.4 °F 21.2 °F 100% 29.31 in 5.0 mi South 18.4 mph 24.2 mph N/A   Overcast
6:15 PM 21.2 °F 6.8 °F 21.2 °F 100% 29.30 in 5.0 mi South 17.3 mph 25.3 mph N/A   Overcast
6:34 PM 23.0 °F 9.2 °F 21.2 °F 93% 29.27 in 7.0 mi South 17.3 mph 24.2 mph N/A   Mostly Cloudy
6:55 PM 23.0 °F 9.2 °F 21.2 °F 93% 29.27 in 7.0 mi South 17.3 mph 23.0 mph N/A   Mostly Cloudy
7:15 PM 23.0 °F 10.6 °F 23.0 °F 100% 29.28 in 7.0 mi South 13.8 mph 18.4 mph N/A   Overcast
7:35 PM 24.8 °F 14.0 °F 23.0 °F 93% 29.28 in 10.0 mi South 11.5 mph - N/A   Overcast
7:54 PM 24.8 °F 14.0 °F 23.0 °F 93% 29.28 in 10.0 mi South 11.5 mph - N/A   Overcast
8:15 PM 24.8 °F 14.0 °F 23.0 °F 93% 29.29 in 10.0 mi South 11.5 mph 17.3 mph N/A   Overcast
8:35 PM 24.8 °F 14.0 °F 24.8 °F 100% 29.29 in 10.0 mi South 11.5 mph - N/A   Overcast
8:54 PM 24.8 °F 15.3 °F 24.8 °F 100% 29.29 in 10.0 mi South 9.2 mph 17.3 mph N/A   Overcast
9:15 PM 26.6 °F 17.5 °F 24.8 °F 93% 29.29 in 10.0 mi South 9.2 mph - N/A   Overcast
9:35 PM 26.6 °F 20.0 °F 24.8 °F 93% 29.31 in 10.0 mi South 5.8 mph - N/A   Overcast
9:54 PM 26.6 °F 11.4 °F 24.8 °F 93% 29.34 in 3.0 mi NNW 25.3 mph - N/A   Overcast
10:15 PM 19.4 °F 0.2 °F 19.4 °F 100% 29.37 in 0.5 mi North 31.1 mph 41.4 mph N/A   Overcast
10:35 PM 17.6 °F -1.9 °F 17.6 °F 100% 29.40 in 0.5 mi North 29.9 mph 39.1 mph N/A Snow Light Snow
10:54 PM 17.6 °F -1.6 °F 17.6 °F 100% 29.41 in 1.2 mi North 28.8 mph - N/A   Overcast
11:15 PM 15.8 °F -4.1 °F 15.8 °F 100% 29.43 in 1.5 mi North 28.8 mph - N/A   Overcast
11:35 PM 14.0 °F -7.1 °F 12.2 °F 93% 29.48 in 1.5 mi NNW 31.1 mph 35.7 mph N/A   Overcast
11:54 PM 12.2 °F -9.3 °F 12.2 °F 100% 29.50 in 1.0 mi North 29.9 mph 38.0 mph N/A   Overcast